This demonstration page uses our WeatherBlox Daily Observations layout. Learn more.

Left ArrowRight Arrow

Hourly Observations for March 30, 2016

Temp ( °F °C ) Dew Point ( °F °C ) Humidity (%) Winds ( mph kmh ) Pressure ( in mb ) Visibility ( mi km ) Precip ( " mm )
12:53 am 00:53 Clear 38 3.3 32 undefined 79 79 ENE 3 6 30.22 1024 10 16 N/A
1:53 am 01:53 Clear 38 3.3 30 -1.1 73 73 ENE 3 6 30.22 1023 10 16 N/A
2:53 am 02:53 Clear 37 2.8 29 -1.7 73 73 E 5 7 30.19 1022 10 16 N/A
3:53 am 03:53 Clear 35 1.7 30 -1.1 82 82 N N/A 30.18 1022 10 16 N/A
4:53 am 04:53 Clear 38 3.3 29 -1.7 70 70 E 5 7 30.17 1022 10 16 N/A
5:53 am 05:53 Clear 38 3.3 30 -1.1 73 73 E 3 6 30.15 1021 10 16 N/A
6:53 am 06:53 Clear 38 3.3 29 -1.7 70 70 N N/A 30.14 1021 10 16 N/A
7:53 am 07:53 Sunny 41 5 29 -1.7 62 62 N N/A 30.14 1021 10 16 N/A
8:53 am 08:53 Sunny 46 7.8 31 -0.6 56 56 VRB 5 7 30.13 1020 10 16 N/A
9:53 am 09:53 Sunny 51 10.6 30 -1.1 44 44 VRB 5 7 30.13 1020 10 16 N/A
10:53 am 10:53 Sunny 57 13.9 33 0.6 41 41 VRB 5 7 30.10 1019 10 16 N/A
11:53 am 11:53 Sunny 64 17.8 35 1.7 34 34 VRB 6 9 30.06 1018 10 16 N/A
12:53 pm 12:53 Sunny 68 20 37 2.8 32 32 SW 9 15 30.04 1017 10 16 N/A
1:53 pm 13:53 Sunny 70 21.1 38 3.3 31 31 SW 13 20 30.00 1016 10 16 N/A
2:53 pm 14:53 Mostly Sunny 72 22.2 39 3.9 30 30 SSW 10 17 29.97 1015 10 16 N/A
3:53 pm 15:53 Mostly Cloudy 73 22.8 39 3.9 29 29 SSW 9 15 29.92 1013 10 16 N/A
4:53 pm 16:53 Partly Cloudy 74 23.3 41 5 31 31 S 12 19 29.87 1011 10 16 N/A
5:53 pm 17:53 Sunny 73 22.8 43 6.1 34 34 SSW 9 15 29.87 1011 10 16 N/A
6:53 pm 18:53 Sunny 72 22.2 44 6.7 37 37 S 9 15 29.86 1011 10 16 N/A
7:53 pm 19:53 Cloudy 71 21.7 47 8.3 42 42 S 8 13 29.85 1011 10 16 N/A
8:53 pm 20:53 Cloudy 71 21.7 45 7.2 39 39 S 9 15 29.84 1011 10 16 N/A
9:53 pm 21:53 Mostly Cloudy 70 21.1 45 7.2 41 41 VRB 6 9 29.83 1010 10 16 N/A
10:53 pm 22:53 Cloudy 70 21.1 42 5.6 37 37 S 9 15 29.80 1009 10 16 N/A
11:53 pm 23:53 Cloudy 68 20 43 6.1 40 40 N N/A 29.79 1009 10 16 N/A

Powered by AerisWeather